Tracking 18852 objects as of 23-Nov-2017
HD Live streaming from Space Station
objects crossing your sky now

WESTFORD NEEDLES

Track WESTFORD NEEDLES now!
10-day predictions
WESTFORD NEEDLES is classified as:


NORAD ID: 19051
Int'l Code: 1963-014EA
Perigee: 3,004.7 km
Apogee: 4,269.5 km
Inclination: 87.3 °
Period: 166.1 minutes
Semi major axis: 10008 km
RCS: 0.357 m2 (medium)
Launch date: May 9, 1963
Source: United States (US)
Launch site: AIR FORCE WESTERN TEST RANGE (AFWTR)
aabbcc
Your satellite tracking list
Your tracking list is empty




NASA's NSSDC Master Catalog

Two Line Element Set (TLE):
1 19051U 63014EA  17326.35054582  .00000070  00000-0  25010-1 0  9997
2 19051  87.2580 104.5794 0631882   8.1192 352.9352  8.67110145963399
Source of the keplerian elements: AFSPC